Weather History for Monte Terminillo, Italy

Change the Weather History Date:

Sunday, October 13, 2013

  Actual Average Record
Temperature  
Mean Temperature 46 °F -  
Max Temperature 50 °F 47 °F 64 °F (2001)
Min Temperature 42 °F 39 °F 32 °F (1998)
Degree Days  
Heating Degree Days 19    
Moisture  
Dew Point 46 °F    
Average Humidity 99    
Maximum Humidity 100    
Minimum Humidity 93    
Precipitation  
Precipitation 0.00 in - - ()
Sea Level Pressure  
Sea Level Pressure 30.32 in    
Wind  
Wind Speed 12 mph ()    
Max Wind Speed 23 mph    
Max Gust Speed -    
Visibility 3.5 miles    
Events Fog    
Averages and records for this station are not official NWS values.
T = Trace of Precipitation, MM = Missing Value Source: Averaged Metar Reports

Daily Weather History Graph

Daily Weather History Graph

Search for Another Location

Airport:

Trip Planner

Search our weather history database for the weather conditions in past years. The results will help you decide how hot, cold, wet, or windy it might be!

Date:

Astronomy

Oct. 13, 2013 Rise Set
Actual Time 7:18 AM CEST 6:29 PM CEST
Civil Twilight 6:50 AM CEST 6:57 PM CEST
Nautical Twilight 6:17 AM CEST 7:30 PM CEST
Astronomical Twilight 5:45 AM CEST 8:02 PM CEST
Moon 3:15 PM CEST (10/13) 1:02 AM CEST (10/13)
Length of Visible Light 12h 07m
Length of Day
11h 10m
Waxing Gibbous, 66% of the Moon is Illuminated
Oct 13
Waxing Gibbous
Oct 19
Full
Oct 27
Last Quarter
Nov 3
New
Nov 10
First Quarter

Hourly Weather History & Observations

Time (CEST) Temp. Dew Point Humidity Pressure Visibility Wind Dir Wind Speed Gust Speed Precip Events Conditions
12:55 AM 44.6 °F 44.6 °F 100% 30.30 in 0.0 mi North - - N/A Fog Fog
1:55 AM 44.6 °F 44.6 °F 100% 30.30 in 0.0 mi North - - N/A Fog Fog
2:00 AM 44 °F 44 °F 98%  in 0 mi West 23.0 mph - -  
2:55 AM 44.6 °F 42.8 °F 93% 30.30 in 0.0 mi North - - N/A Fog Fog
3:55 AM 44.6 °F 42.8 °F 93% 30.30 in 0.0 mi North - - N/A Fog Fog
4:55 AM 42.8 °F 42.8 °F 100% 30.30 in 0.0 mi North - - N/A Fog Fog
8:55 AM 42.8 °F 42.8 °F 100% 30.30 in - North - - N/A   Mostly Cloudy
9:55 AM 42.8 °F 42.8 °F 100% 30.30 in - North - - N/A   Scattered Clouds
10:55 AM 42.8 °F 42.8 °F 100% 30.33 in - North - - N/A   Scattered Clouds
11:55 AM 44.6 °F 44.6 °F 100% 30.33 in - North - - N/A   Scattered Clouds
12:55 PM 44.6 °F 44.6 °F 100% 30.33 in - North - - N/A   Scattered Clouds
1:55 PM 46.4 °F 46.4 °F 100% 30.33 in - North - - N/A   Scattered Clouds
2:00 PM 46 °F 46 °F 100%  in 16 mi WNW 16.1 mph - -  
2:55 PM 46.4 °F 46.4 °F 100% 30.33 in - North - - N/A   Scattered Clouds
3:55 PM 48.2 °F 46.4 °F 93% 30.33 in - North - - N/A   Scattered Clouds
4:55 PM 48.2 °F 48.2 °F 100% 30.33 in - North - - N/A   Scattered Clouds
5:55 PM 48.2 °F 48.2 °F 100% 30.33 in - North - - N/A   Scattered Clouds
6:55 PM 48.2 °F 48.2 °F 100% 30.33 in - North - - N/A   Scattered Clouds
8:00 PM 49 °F 49 °F 100%  in 12 mi West 6.9 mph - -  
8:55 PM 50.0 °F 50.0 °F 100% 30.33 in - North - - N/A   Partly Cloudy
9:55 PM 48.2 °F 48.2 °F 100% 30.33 in - North - - N/A   Clear
10:55 PM 48.2 °F 48.2 °F 100% 30.33 in - North - - N/A   Clear
11:55 PM 48.2 °F 48.2 °F 100% 30.33 in - North - - N/A   Clear